Location: St. Louis
(38.6270°N, 90.1994°W)
Time: 10:54:25
(UTC-06:00)

A-11 Canister half - Pass Details

Date: 15 December 2021
Orbit: 1524 x 1684 km, 47.3° (Epoch: 25 January)

Event Time Altitude Azimuth Distance (km) Brightness Sun altitude
Rises 22:40:09 0° 245° (WSW) 4,876 - -67.7°
Reaches altitude 10° 22:43:16 10° 247° (WSW) 3,906 - -68.2°
Maximum altitude 22:53:22 76° 333° (NNW) 1,723 - -69.6°
Drops below altitude 10° 23:03:35 10° 60° (ENE) 3,946 - -71.0°
Sets 23:06:46 0° 62° (ENE) 4,928 - -71.4°
